EZY5EF EGKK-EGPH

Flight info

Callsign EZY5EF
Flight time 1h 4m
Altitude 34000
Route LAM L10 BPK UN601 RIBEL DCT INPIP
Aircraft A320/M-SDE3FGHIRWY/LB1

Departure

Time 2026-05-07 03:48
Airport London Gatwick Airport (EGKK)

Arrival

Time 2026-05-07 04:52
Airport Edinburgh Airport (EGPH)
Time Latitude Longitude Altitude Speed Heading
2026-05-07 03:20 51.15484 -0.16967 205 ft 0 kts 348°
2026-05-07 03:37 51.15481 -0.16966 205 ft 3 kts 348°
2026-05-07 03:37 51.15455 -0.16960 212 ft 4 kts
2026-05-07 03:37 51.15432 -0.16971 216 ft 4 kts 59°
2026-05-07 03:38 51.15429 -0.16981 213 ft 0 kts 77°
2026-05-07 03:39 51.15433 -0.16954 205 ft 7 kts 77°
2026-05-07 03:40 51.15445 -0.16863 205 ft 9 kts 78°
2026-05-07 03:40 51.15454 -0.16770 207 ft 8 kts 94°
2026-05-07 03:40 51.15421 -0.16724 207 ft 6 kts 165°
2026-05-07 03:40 51.15385 -0.16712 212 ft 5 kts 168°
2026-05-07 03:41 51.15358 -0.16702 205 ft 3 kts 162°
2026-05-07 03:41 51.15333 -0.16687 209 ft 6 kts 160°
2026-05-07 03:41 51.15298 -0.16673 208 ft 5 kts 168°
2026-05-07 03:41 51.15281 -0.16668 211 ft 1 kts 168°
2026-05-07 03:42 51.15278 -0.16667 210 ft 0 kts 168°
2026-05-07 03:46 51.15274 -0.16665 208 ft 3 kts 168°
2026-05-07 03:46 51.15232 -0.16652 211 ft 9 kts 168°
2026-05-07 03:47 51.15154 -0.16650 210 ft 11 kts 213°
2026-05-07 03:47 51.15133 -0.16727 205 ft 4 kts 258°
2026-05-07 03:47 51.15118 -0.16841 206 ft 30 kts 258°
2026-05-07 03:47 51.15017 -0.17565 210 ft 100 kts 258°
2026-05-07 03:48 51.14826 -0.18954 216 ft 154 kts 257°
2026-05-07 03:48 51.14571 -0.20780 543 ft 170 kts 258°
2026-05-07 03:48 51.14327 -0.22618 1294 ft 170 kts 258°
2026-05-07 03:48 51.14079 -0.24506 1799 ft 183 kts 258°
2026-05-07 03:49 51.13798 -0.26591 2191 ft 201 kts 257°
2026-05-07 03:49 51.13661 -0.28895 2576 ft 222 kts 285°
2026-05-07 03:49 51.14479 -0.30963 3276 ft 226 kts 319°
2026-05-07 03:49 51.15872 -0.32111 4111 ft 228 kts 347°
2026-05-07 03:50 51.17463 -0.32037 4907 ft 234 kts 18°
2026-05-07 03:50 51.18806 -0.30616 5667 ft 237 kts 53°
2026-05-07 03:50 51.19436 -0.28204 6437 ft 239 kts 83°
2026-05-07 03:50 51.19689 -0.25560 7174 ft 243 kts 81°
2026-05-07 03:51 51.19996 -0.22899 7934 ft 246 kts 79°
2026-05-07 03:51 51.20327 -0.20204 8688 ft 251 kts 78°
2026-05-07 03:51 51.20698 -0.17339 9023 ft 275 kts 78°
2026-05-07 03:51 51.21104 -0.14283 9622 ft 286 kts 77°
2026-05-07 03:52 51.21525 -0.11151 10328 ft 293 kts 77°
2026-05-07 03:52 51.21969 -0.07851 10566 ft 317 kts 77°
2026-05-07 03:52 51.22445 -0.04283 10788 ft 339 kts 77°
2026-05-07 03:52 51.22935 -0.00544 11315 ft 348 kts 77°
2026-05-07 03:53 51.23438 0.03317 12014 ft 353 kts 78°
2026-05-07 03:53 51.23937 0.07178 12731 ft 357 kts 78°
2026-05-07 03:53 51.24432 0.11033 13425 ft 361 kts 78°
2026-05-07 03:53 51.24943 0.15028 14098 ft 365 kts 78°
2026-05-07 03:54 51.25452 0.19013 14718 ft 368 kts 78°
2026-05-07 03:54 51.25955 0.23033 15332 ft 372 kts 78°
2026-05-07 03:54 51.26443 0.27108 15830 ft 375 kts 79°
2026-05-07 03:54 51.26922 0.31222 16443 ft 378 kts 78°
2026-05-07 03:55 51.27754 0.35210 17006 ft 381 kts 58°
2026-05-07 03:55 51.29513 0.38333 17579 ft 382 kts 34°
2026-05-07 03:55 51.31942 0.40018 18167 ft 383 kts
2026-05-07 03:55 51.34586 0.39939 18685 ft 384 kts 345°
2026-05-07 03:56 51.37008 0.38165 19212 ft 385 kts 325°
2026-05-07 03:56 51.39096 0.35461 19828 ft 387 kts 316°
2026-05-07 03:56 51.41083 0.32533 20361 ft 390 kts 319°
2026-05-07 03:56 51.43241 0.29868 20881 ft 394 kts 326°
2026-05-07 03:57 51.45640 0.27712 21398 ft 397 kts 333°
2026-05-07 03:57 51.48165 0.25851 21907 ft 400 kts 336°
2026-05-07 03:57 51.50760 0.24168 22400 ft 404 kts 338°
2026-05-07 03:57 51.53385 0.22552 22878 ft 407 kts 338°
2026-05-07 03:58 51.56038 0.20912 23356 ft 409 kts 338°
2026-05-07 03:58 51.58694 0.19216 23786 ft 412 kts 337°
2026-05-07 03:58 51.61318 0.17351 24165 ft 413 kts 330°
2026-05-07 03:58 51.63714 0.14798 24535 ft 415 kts 320°
2026-05-07 03:59 51.65802 0.11589 24891 ft 416 kts 310°
2026-05-07 03:59 51.67543 0.07848 25245 ft 418 kts 302°
2026-05-07 03:59 51.69126 0.03913 25601 ft 420 kts 303°
2026-05-07 03:59 51.70721 -0.00053 25960 ft 422 kts 303°
2026-05-07 04:00 51.72321 -0.04036 26314 ft 424 kts 303°
2026-05-07 04:00 51.74053 -0.07901 26638 ft 427 kts 310°
2026-05-07 04:00 51.76154 -0.11293 26954 ft 429 kts 320°
2026-05-07 04:00 51.78614 -0.14130 27275 ft 431 kts 329°
2026-05-07 04:01 51.81182 -0.16550 27582 ft 433 kts 330°
2026-05-07 04:01 51.83820 -0.19050 27862 ft 435 kts 330°
2026-05-07 04:01 51.86432 -0.21541 28168 ft 437 kts 330°
2026-05-07 04:01 51.89060 -0.24058 28445 ft 440 kts 330°
2026-05-07 04:02 51.91699 -0.26593 28727 ft 442 kts 330°
2026-05-07 04:02 51.94348 -0.29141 28998 ft 444 kts 330°
2026-05-07 04:02 51.97006 -0.31696 29259 ft 446 kts 330°
2026-05-07 04:02 51.99683 -0.34266 29512 ft 448 kts 330°
2026-05-07 04:03 52.02367 -0.36845 29763 ft 449 kts 330°
2026-05-07 04:03 52.05062 -0.39440 30002 ft 451 kts 330°
2026-05-07 04:03 52.07762 -0.42041 30268 ft 451 kts 330°
2026-05-07 04:03 52.10454 -0.44640 30545 ft 450 kts 330°
2026-05-07 04:04 52.13144 -0.47245 30833 ft 450 kts 330°
2026-05-07 04:04 52.15833 -0.49853 31120 ft 449 kts 330°
2026-05-07 04:04 52.18509 -0.52450 31422 ft 448 kts 330°
2026-05-07 04:04 52.21187 -0.55046 31711 ft 447 kts 330°
2026-05-07 04:05 52.23865 -0.57645 32009 ft 446 kts 330°
2026-05-07 04:05 52.26530 -0.60236 32308 ft 446 kts 330°
2026-05-07 04:05 52.29186 -0.62827 32601 ft 445 kts 330°
2026-05-07 04:05 52.31842 -0.65426 32887 ft 444 kts 330°
2026-05-07 04:06 52.34489 -0.68019 33164 ft 444 kts 330°
2026-05-07 04:06 52.37139 -0.70614 33451 ft 443 kts 331°
2026-05-07 04:06 52.39780 -0.73203 33732 ft 443 kts 331°
2026-05-07 04:06 52.42424 -0.75799 33992 ft 443 kts 331°
2026-05-07 04:07 52.45064 -0.78398 34056 ft 442 kts 331°
2026-05-07 04:07 52.50328 -0.83592 34062 ft 441 kts 331°
2026-05-07 04:08 52.55586 -0.88785 34065 ft 441 kts 331°
2026-05-07 04:08 52.60841 -0.93997 34047 ft 441 kts 331°
2026-05-07 04:09 52.66095 -0.99227 34038 ft 441 kts 330°
2026-05-07 04:09 52.71354 -1.04475 34055 ft 441 kts 330°
2026-05-07 04:10 52.76608 -1.09716 34053 ft 441 kts 330°
2026-05-07 04:10 52.81854 -1.14970 34049 ft 441 kts 330°
2026-05-07 04:11 52.87130 -1.20275 34052 ft 441 kts 330°
2026-05-07 04:11 52.92358 -1.25558 34051 ft 441 kts 330°
2026-05-07 04:12 52.97599 -1.30871 34054 ft 441 kts 330°
2026-05-07 04:12 53.02829 -1.36178 34058 ft 441 kts 330°
2026-05-07 04:13 53.08056 -1.41488 34058 ft 440 kts 330°
2026-05-07 04:13 53.13281 -1.46812 34065 ft 440 kts 330°
2026-05-07 04:14 53.18500 -1.52159 34065 ft 440 kts 329°
2026-05-07 04:14 53.23707 -1.57502 34064 ft 440 kts 329°
2026-05-07 04:15 53.28913 -1.62856 34061 ft 439 kts 329°
2026-05-07 04:15 53.34119 -1.68225 34060 ft 440 kts 329°
2026-05-07 04:16 53.39317 -1.73619 34062 ft 440 kts 329°
2026-05-07 04:16 53.44515 -1.79030 34064 ft 439 kts 329°
2026-05-07 04:17 53.49711 -1.84439 34061 ft 440 kts 329°
2026-05-07 04:17 53.54906 -1.89840 34060 ft 439 kts 328°
2026-05-07 04:18 53.60094 -1.95261 34057 ft 439 kts 328°
2026-05-07 04:18 53.65280 -2.00705 34056 ft 439 kts 328°
2026-05-07 04:19 53.69617 -2.05290 34057 ft 439 kts 328°
2026-05-07 04:19 53.74850 -2.10578 34058 ft 439 kts 335°
2026-05-07 04:20 53.80498 -2.14468 34056 ft 438 kts 338°
2026-05-07 04:20 53.86154 -2.18330 34051 ft 438 kts 338°
2026-05-07 04:21 53.94638 -2.24159 34059 ft 438 kts 338°
2026-05-07 04:21 54.00282 -2.28047 34054 ft 438 kts 337°
2026-05-07 04:22 54.05928 -2.31938 34059 ft 438 kts 337°
2026-05-07 04:22 54.11572 -2.35842 34057 ft 437 kts 337°
2026-05-07 04:23 54.17210 -2.39752 34039 ft 437 kts 337°
2026-05-07 04:23 54.22845 -2.43667 34042 ft 437 kts 336°
2026-05-07 04:24 54.28471 -2.47604 34040 ft 437 kts 336°
2026-05-07 04:24 54.34133 -2.51570 34041 ft 437 kts 336°
2026-05-07 04:25 54.39768 -2.55507 34041 ft 437 kts 336°
2026-05-07 04:25 54.45395 -2.59459 34037 ft 437 kts 336°
2026-05-07 04:26 54.51028 -2.63444 33757 ft 438 kts 336°
2026-05-07 04:26 54.53849 -2.65442 33484 ft 438 kts 336°
2026-05-07 04:26 54.56673 -2.67445 33209 ft 439 kts 335°
2026-05-07 04:27 54.59491 -2.69448 32941 ft 439 kts 335°
2026-05-07 04:27 54.62321 -2.71461 32118 ft 442 kts 335°
2026-05-07 04:27 54.65183 -2.73501 31127 ft 446 kts 335°
2026-05-07 04:27 54.68051 -2.75550 30353 ft 444 kts 335°
2026-05-07 04:28 54.70883 -2.77570 29723 ft 439 kts 335°
2026-05-07 04:28 54.73685 -2.79564 29083 ft 432 kts 335°
2026-05-07 04:28 54.76453 -2.81541 28473 ft 427 kts 335°
2026-05-07 04:28 54.79179 -2.83494 27862 ft 422 kts 335°
2026-05-07 04:29 54.81870 -2.85426 27275 ft 417 kts 335°
2026-05-07 04:29 54.84535 -2.87346 26685 ft 413 kts 335°
2026-05-07 04:29 54.87176 -2.89251 26100 ft 409 kts 334°
2026-05-07 04:29 54.89793 -2.91143 25534 ft 406 kts 334°
2026-05-07 04:30 54.92391 -2.93024 24963 ft 404 kts 334°
2026-05-07 04:30 54.94977 -2.94899 24406 ft 401 kts 334°
2026-05-07 04:30 54.97547 -2.96760 23853 ft 398 kts 334°
2026-05-07 04:30 55.00094 -2.98604 23240 ft 396 kts 334°
2026-05-07 04:31 55.02623 -3.00439 22684 ft 392 kts 334°
2026-05-07 04:31 55.05128 -3.02261 22140 ft 388 kts 334°
2026-05-07 04:31 55.07611 -3.04074 21602 ft 385 kts 334°
2026-05-07 04:31 55.10076 -3.05876 21063 ft 383 kts 334°
2026-05-07 04:32 55.12528 -3.07667 20532 ft 381 kts 334°
2026-05-07 04:32 55.14963 -3.09450 19997 ft 379 kts 334°
2026-05-07 04:32 55.17408 -3.11243 19126 ft 386 kts 334°
2026-05-07 04:32 55.19902 -3.13075 18097 ft 387 kts 334°
2026-05-07 04:33 55.22350 -3.14868 17526 ft 370 kts 334°
2026-05-07 04:33 55.24666 -3.16560 17385 ft 344 kts 334°
2026-05-07 04:33 55.26803 -3.18120 17151 ft 323 kts 334°
2026-05-07 04:33 55.28879 -3.19492 16588 ft 317 kts 342°
2026-05-07 04:34 55.31039 -3.20093 16068 ft 313 kts 355°
2026-05-07 04:34 55.33218 -3.19914 15571 ft 316 kts
2026-05-07 04:34 55.35418 -3.19575 15173 ft 316 kts
2026-05-07 04:34 55.37596 -3.19232 14853 ft 313 kts
2026-05-07 04:35 55.39764 -3.18889 14492 ft 312 kts
2026-05-07 04:35 55.41922 -3.18548 14150 ft 311 kts
2026-05-07 04:35 55.44067 -3.18210 13813 ft 309 kts
2026-05-07 04:35 55.46204 -3.17877 13445 ft 307 kts
2026-05-07 04:36 55.48331 -3.17545 13075 ft 306 kts
2026-05-07 04:36 55.50444 -3.17213 12709 ft 304 kts
2026-05-07 04:36 55.52547 -3.16881 12335 ft 302 kts
2026-05-07 04:36 55.54635 -3.16549 11966 ft 301 kts
2026-05-07 04:37 55.56716 -3.16219 11605 ft 299 kts
2026-05-07 04:37 55.58785 -3.15894 11234 ft 298 kts
2026-05-07 04:37 55.60846 -3.15570 10877 ft 297 kts
2026-05-07 04:37 55.62896 -3.15244 10533 ft 295 kts
2026-05-07 04:38 55.64931 -3.14920 10178 ft 293 kts
2026-05-07 04:38 55.66956 -3.14600 9839 ft 291 kts
2026-05-07 04:38 55.68927 -3.14291 9702 ft 281 kts
2026-05-07 04:38 55.70851 -3.13966 9395 ft 276 kts
2026-05-07 04:39 55.72666 -3.12778 8874 ft 282 kts 27°
2026-05-07 04:39 55.74365 -3.11044 8469 ft 279 kts 30°
2026-05-07 04:39 55.75997 -3.09313 8064 ft 268 kts 30°
2026-05-07 04:39 55.77563 -3.07644 7677 ft 258 kts 30°
2026-05-07 04:40 55.79091 -3.06013 7300 ft 256 kts 30°
2026-05-07 04:40 55.80616 -3.04386 6919 ft 255 kts 30°
2026-05-07 04:40 55.82157 -3.02745 6535 ft 254 kts 30°
2026-05-07 04:40 55.82760 -3.02104 6383 ft 254 kts 30°
2026-05-07 04:43 55.83815 -3.00981 6115 ft 253 kts 30°
2026-05-07 04:43 55.85323 -2.99375 5707 ft 252 kts 30°
2026-05-07 04:44 55.86824 -2.97784 5311 ft 250 kts 30°
2026-05-07 04:44 55.88358 -2.96395 5010 ft 245 kts 21°
2026-05-07 04:44 55.89933 -2.95304 4680 ft 241 kts 20°
2026-05-07 04:44 55.91494 -2.94275 4361 ft 238 kts 20°
2026-05-07 04:45 55.93066 -2.93408 4043 ft 236 kts 12°
2026-05-07 04:45 55.94663 -2.92867 3833 ft 230 kts 10°
2026-05-07 04:45 55.96228 -2.92395 3624 ft 227 kts 10°
2026-05-07 04:45 55.97781 -2.91944 3415 ft 226 kts 10°
2026-05-07 04:46 55.99341 -2.91507 3207 ft 227 kts
2026-05-07 04:46 56.00882 -2.91763 3047 ft 220 kts 340°
2026-05-07 04:46 56.02149 -2.93222 3006 ft 218 kts 312°
2026-05-07 04:46 56.02956 -2.95512 3010 ft 219 kts 297°
2026-05-07 04:47 56.03654 -2.97936 3010 ft 219 kts 297°
2026-05-07 04:47 56.04351 -3.00366 3005 ft 219 kts 297°
2026-05-07 04:47 56.04998 -3.02867 3004 ft 219 kts 285°
2026-05-07 04:47 56.05173 -3.05456 3007 ft 210 kts 264°
2026-05-07 04:48 56.04818 -3.07991 3009 ft 208 kts 243°
2026-05-07 04:48 56.04096 -3.10221 3010 ft 208 kts 238°
2026-05-07 04:48 56.03362 -3.12412 2999 ft 199 kts 238°
2026-05-07 04:48 56.02662 -3.14499 2847 ft 193 kts 238°
2026-05-07 04:49 56.01975 -3.16549 2615 ft 192 kts 238°
2026-05-07 04:49 56.01290 -3.18586 2359 ft 191 kts 237°
2026-05-07 04:49 56.00620 -3.20583 2118 ft 182 kts 237°
2026-05-07 04:49 55.99984 -3.22473 1844 ft 173 kts 237°
2026-05-07 04:50 55.99380 -3.24269 1606 ft 166 kts 237°
2026-05-07 04:50 55.98788 -3.26026 1372 ft 162 kts 237°
2026-05-07 04:50 55.98414 -3.27134 1257 ft 152 kts 237°
2026-05-07 04:50 55.97707 -3.29232 964 ft 144 kts 238°
2026-05-07 04:51 55.97368 -3.30236 831 ft 141 kts 238°
2026-05-07 04:51 55.96867 -3.31726 662 ft 139 kts 239°
2026-05-07 04:51 55.96375 -3.33191 483 ft 137 kts 239°
2026-05-07 04:51 55.95886 -3.34642 299 ft 135 kts 238°
2026-05-07 04:52 55.95403 -3.36066 126 ft 134 kts 238°
2026-05-07 04:52 55.94984 -3.37296 112 ft 84 kts 239°
2026-05-07 04:52 55.94799 -3.37845 115 ft 38 kts 238°
2026-05-07 04:52 55.94697 -3.38056 114 ft 16 kts 177°
2026-05-07 04:53 55.94625 -3.37985 114 ft 9 kts 149°
2026-05-07 04:53 55.94588 -3.37920 116 ft 6 kts 104°
2026-05-07 04:53 55.94605 -3.37841 114 ft 8 kts 58°
2026-05-07 04:53 55.94631 -3.37767 113 ft 6 kts 58°
2026-05-07 04:54 55.94653 -3.37703 114 ft 6 kts 58°
2026-05-07 04:54 55.94678 -3.37628 114 ft 10 kts 59°
2026-05-07 04:54 55.94723 -3.37494 115 ft 14 kts 59°
2026-05-07 04:54 55.94770 -3.37357 116 ft 12 kts 59°
2026-05-07 04:55 55.94812 -3.37231 116 ft 11 kts 59°
2026-05-07 04:55 55.94848 -3.37126 116 ft 9 kts 59°
2026-05-07 04:55 55.94879 -3.37034 114 ft 8 kts 59°
2026-05-07 04:55 55.94916 -3.36926 114 ft 12 kts 58°
2026-05-07 04:56 55.94904 -3.36811 116 ft 9 kts 136°
2026-05-07 04:56 55.94905 -3.36718 115 ft 7 kts 62°
2026-05-07 04:56 55.94930 -3.36643 115 ft 6 kts 59°
2026-05-07 04:56 55.94928 -3.36606 116 ft 2 kts 125°
2026-05-07 04:57 55.94911 -3.36580 112 ft 3 kts 143°
2026-05-07 04:57 55.94895 -3.36563 113 ft 2 kts 149°
2026-05-07 04:57 55.94884 -3.36552 115 ft 1 kts 149°
2026-05-07 04:57 55.94880 -3.36547 113 ft 0 kts 149°